Starlink 30436

operational
NORAD ID: 57880 Int'l Des: 2023-144 Owner: SPXS Country: US Constellation: starlink
LEOCIRCULAR

Über Starlink 30436

Beschreibung wird geladen...

Live-Position

3D-Globus wird geladen...

Nächste Überflüge

Höhenverlauf

Altitude vs Time

uPlot chart will show altitude changes over time

Zweizeiliger Elementsatz

1 57880U 23144S 25259.12870112 .00000658 00000-0 63748-4 0 9998
2 57880 43.0019 155.8619 0001042 263.5434 96.5290 15.02539095111357
Epoch: 16. Sept. 2025 • Age: 22 hours

Aktueller Status

Höhe 561.3 km
Geschwindigkeit 7.58 km/s
Subsatellitenpunkt -13.43°S, 119.77°E
Startdatum 16. Sept. 2023
Alter 2 years
Typ internet

Technische Details

Klassifizierung Payload
Masse 730.00 kg
Trockenmasse 700.00 kg
Gesamtmasse 730.00 kg
Länge 0.30 m
Durchmesser 4.10 m
Spannweite 29.00 m
Form Box + pan
Hersteller SPXS
Bus-Typ Starlink V2M
Phasenstatus In Orbit
Besitzer/Staat SPXS/US

Große Konstellationen

Loading constellations...